975  
ASGM40 PGUM 192010  
RWRGUM  
WEATHER ROUNDUP FOR THE MARIANAS  
NATIONAL WEATHER SERVICE TIYAN GU  
600 AM CHST TUE AUG 20 2019  
 
GUZ001>004-192100-  
MARIANA ISLANDS-  
 
CITY SKY/WX TMP DP RH WIND PRES REMARKS
 
GUAM AIRPORT LGT RAIN 75 73 94 CALM 29.82R  
ANDERSEN AFB LGT RAIN 75 73 94 SW10 29.82R  
ROTA AIRPORT NOT AVBL  
TINIAN AP PTCLDY 79 75 89 SE5 29.79  
SAIPAN AP PTCLDY 81 75 83 SE9 29.80R  
 

 
 
 
 
CLICK HERE TO GO TO PREVIOUS BULLETINS.

The Nexlab GU Page Main Text Page